#Datum;Uhrzeit;WR;Pac;DaySum;Status;WR;Pac;DaySum;Status;Pdc1;Udc;Temp;WR;Pac;DaySum;Status;Pdc1;Udc;Temp;WR;Pac;DaySum;Status;Pdc1;Udc;Temp;WR;Pac;DaySum;Status;Pdc1;Pdc2;Udc1;Udc2;Temp;WR;Pac;DaySum;Status;Pdc1;Pdc2;Udc1;Udc2;Temp;WR;Pac;DaySum;Status;Pdc1;Udc;Temp;WR;Pac;DaySum;Status;Pdc1;Udc;Temp;WR;Pac;DaySum;Status;Pdc1;Udc;Temp
13.10.18;23:55:00;1;272;12524;0;2;0;24195;0;0;0;0;3;0;15594;0;0;0;0;4;0;21844;0;0;0;0;5;0;57296;0;0;0;0;0;0;6;0;43660;0;0;0;0;0;0;7;0;37653;0;0;0;0;8;0;36710;0;0;0;0;9;0;19789;0;0;0;0
13.10.18;23:50:00;1;242;12502;0;2;0;24195;0;0;0;0;3;0;15594;0;0;0;0;4;0;21844;0;0;0;0;5;0;57296;0;0;0;0;0;0;6;0;43660;0;0;0;0;0;0;7;0;37653;0;0;0;0;8;0;36710;0;0;0;0;9;0;19789;0;0;0;0
13.10.18;23:45:00;1;279;12481;0;2;0;24195;0;0;0;0;3;0;15594;0;0;0;0;4;0;21844;0;0;0;0;5;0;57296;0;0;0;0;0;0;6;0;43660;0;0;0;0;0;0;7;0;37653;0;0;0;0;8;0;36710;0;0;0;0;9;0;19789;0;0;0;0
13.10.18;23:40:00;1;258;12459;0;2;0;24195;0;0;0;0;3;0;15594;0;0;0;0;4;0;21844;0;0;0;0;5;0;57296;0;0;0;0;0;0;6;0;43660;0;0;0;0;0;0;7;0;37653;0;0;0;0;8;0;36710;0;0;0;0;9;0;19789;0;0;0;0
13.10.18;23:35:00;1;201;12437;0;2;0;24195;0;0;0;0;3;0;15594;0;0;0;0;4;0;21844;0;0;0;0;5;0;57296;0;0;0;0;0;0;6;0;43660;0;0;0;0;0;0;7;0;37653;0;0;0;0;8;0;36710;0;0;0;0;9;0;19789;0;0;0;0
13.10.18;23:30:00;1;246;12420;0;2;0;24195;0;0;0;0;3;0;15594;0;0;0;0;4;0;21844;0;0;0;0;5;0;57296;0;0;0;0;0;0;6;0;43660;0;0;0;0;0;0;7;0;37653;0;0;0;0;8;0;36710;0;0;0;0;9;0;19789;0;0;0;0
13.10.18;23:25:00;1;244;12400;0;2;0;24195;0;0;0;0;3;0;15594;0;0;0;0;4;0;21844;0;0;0;0;5;0;57296;0;0;0;0;0;0;6;0;43660;0;0;0;0;0;0;7;0;37653;0;0;0;0;8;0;36710;0;0;0;0;9;0;19789;0;0;0;0
13.10.18;23:20:00;1;245;12379;0;2;0;24195;0;0;0;0;3;0;15594;0;0;0;0;4;0;21844;0;0;0;0;5;0;57296;0;0;0;0;0;0;6;0;43660;0;0;0;0;0;0;7;0;37653;0;0;0;0;8;0;36710;0;0;0;0;9;0;19789;0;0;0;0
13.10.18;23:15:00;1;222;12359;0;2;0;24195;0;0;0;0;3;0;15594;0;0;0;0;4;0;21844;0;0;0;0;5;0;57296;0;0;0;0;0;0;6;0;43660;0;0;0;0;0;0;7;0;37653;0;0;0;0;8;0;36710;0;0;0;0;9;0;19789;0;0;0;0
13.10.18;23:10:00;1;201;12340;0;2;0;24195;0;0;0;0;3;0;15594;0;0;0;0;4;0;21844;0;0;0;0;5;0;57296;0;0;0;0;0;0;6;0;43660;0;0;0;0;0;0;7;0;37653;0;0;0;0;8;0;36710;0;0;0;0;9;0;19789;0;0;0;0
13.10.18;23:05:00;1;233;12323;0;2;0;24195;0;0;0;0;3;0;15594;0;0;0;0;4;0;21844;0;0;0;0;5;0;57296;0;0;0;0;0;0;6;0;43660;0;0;0;0;0;0;7;0;37653;0;0;0;0;8;0;36710;0;0;0;0;9;0;19789;0;0;0;0
13.10.18;23:00:00;1;249;12304;0;2;0;24195;0;0;0;0;3;0;15594;0;0;0;0;4;0;21844;0;0;0;0;5;0;57296;0;0;0;0;0;0;6;0;43660;0;0;0;0;0;0;7;0;37653;0;0;0;0;8;0;36710;0;0;0;0;9;0;19789;0;0;0;0
13.10.18;22:55:00;1;250;12283;0;2;0;24195;0;0;0;0;3;0;15594;0;0;0;0;4;0;21844;0;0;0;0;5;0;57296;2;0;0;0;0;0;6;0;43660;2;0;0;0;0;0;7;0;37653;0;0;0;0;8;0;36710;0;0;0;0;9;0;19789;0;0;0;0
13.10.18;22:50:00;1;296;12262;0;2;0;24195;0;0;0;0;3;0;15594;0;0;0;0;4;0;21844;0;0;0;0;5;0;57296;2;0;0;0;0;0;6;0;43660;2;0;0;0;0;0;7;0;37653;0;0;0;0;8;0;36710;0;0;0;0;9;0;19789;0;0;0;0
13.10.18;22:45:00;1;322;12237;0;2;0;24195;0;0;0;0;3;0;15594;0;0;0;0;4;0;21844;0;0;0;0;5;0;57296;2;0;0;0;0;0;6;0;43660;2;0;0;0;0;0;7;0;37653;0;0;0;0;8;0;36710;0;0;0;0;9;0;19789;0;0;0;0
13.10.18;22:40:00;1;361;12209;0;2;0;24195;0;0;0;0;3;0;15594;0;0;0;0;4;0;21844;0;0;0;0;5;0;57296;2;0;0;0;0;0;6;0;43660;2;0;0;0;0;0;7;0;37653;0;0;0;0;8;0;36710;0;0;0;0;9;0;19789;0;0;0;0
13.10.18;22:35:00;1;311;12180;0;2;0;24195;0;0;0;0;3;0;15594;0;0;0;0;4;0;21844;0;0;0;0;5;0;57296;2;0;0;0;0;0;6;0;43660;2;0;0;0;0;0;7;0;37653;0;0;0;0;8;0;36710;0;0;0;0;9;0;19789;0;0;0;0
13.10.18;22:30:00;1;340;12154;0;2;0;24195;0;0;0;0;3;0;15594;0;0;0;0;4;0;21844;0;0;0;0;5;0;57296;2;0;0;0;0;0;6;0;43660;2;0;0;0;0;0;7;0;37653;0;0;0;0;8;0;36710;0;0;0;0;9;0;19789;0;0;0;0
13.10.18;22:25:00;1;268;12128;0;2;0;24195;0;0;0;0;3;0;15594;0;0;0;0;4;0;21844;0;0;0;0;5;0;57296;2;0;0;0;0;0;6;0;43660;2;0;0;0;0;0;7;0;37653;0;0;0;0;8;0;36710;0;0;0;0;9;0;19789;0;0;0;0
13.10.18;22:20:00;1;266;12106;0;2;0;24195;0;0;0;0;3;0;15594;0;0;0;0;4;0;21844;0;0;0;0;5;0;57296;2;0;0;0;0;0;6;0;43660;2;0;0;0;0;0;7;0;37653;0;0;0;0;8;0;36710;0;0;0;0;9;0;19789;0;0;0;0
13.10.18;22:15:00;1;259;12083;0;2;0;24195;0;0;0;0;3;0;15594;0;0;0;0;4;0;21844;0;0;0;0;5;0;57296;2;0;0;0;0;0;6;0;43660;2;0;0;0;0;0;7;0;37653;0;0;0;0;8;0;36710;0;0;0;0;9;0;19789;0;0;0;0
13.10.18;22:10:00;1;200;12062;0;2;0;24195;0;0;0;0;3;0;15594;0;0;0;0;4;0;21844;0;0;0;0;5;0;57296;2;0;0;0;0;0;6;0;43660;2;0;0;0;0;0;7;0;37653;0;0;0;0;8;0;36710;0;0;0;0;9;0;19789;0;0;0;0
13.10.18;22:05:00;1;205;12046;0;2;0;24195;0;0;0;0;3;0;15594;0;0;0;0;4;0;21844;0;0;0;0;5;0;57296;2;0;0;0;0;0;6;0;43660;2;0;0;0;0;0;7;0;37653;0;0;0;0;8;0;36710;0;0;0;0;9;0;19789;0;0;0;0
13.10.18;22:00:00;1;205;12029;0;2;0;24195;0;0;0;0;3;0;15594;0;0;0;0;4;0;21844;0;0;0;0;5;0;57296;2;0;0;0;0;0;6;0;43660;2;0;0;0;0;0;7;0;37653;0;0;0;0;8;0;36710;0;0;0;0;9;0;19789;0;0;0;0
13.10.18;21:55:00;1;222;12011;0;2;0;24195;0;0;0;0;3;0;15594;0;0;0;0;4;0;21844;0;0;0;0;5;0;57296;2;0;0;0;0;0;6;0;43660;2;0;0;0;0;0;7;0;37653;0;0;0;0;8;0;36710;0;0;0;0;9;0;19789;0;0;0;0
13.10.18;21:50:00;1;247;11992;0;2;0;24195;0;0;0;0;3;0;15594;0;0;0;0;4;0;21844;0;0;0;0;5;0;57296;2;0;0;0;0;0;6;0;43660;2;0;0;0;0;0;7;0;37653;0;0;0;0;8;0;36710;0;0;0;0;9;0;19789;0;0;0;0
13.10.18;21:45:00;1;249;11972;0;2;0;24195;0;0;0;0;3;0;15594;0;0;0;0;4;0;21844;0;0;0;0;5;0;57296;2;0;0;0;0;0;6;0;43660;2;0;0;0;0;0;7;0;37653;0;0;0;0;8;0;36710;0;0;0;0;9;0;19789;0;0;0;0
13.10.18;21:40:00;1;265;11951;0;2;0;24195;0;0;0;0;3;0;15594;0;0;0;0;4;0;21844;0;0;0;0;5;0;57296;2;0;0;0;0;0;6;0;43660;2;0;0;0;0;0;7;0;37653;0;0;0;0;8;0;36710;0;0;0;0;9;0;19789;0;0;0;0
13.10.18;21:35:00;1;206;11931;0;2;0;24195;0;0;0;0;3;0;15594;0;0;0;0;4;0;21844;0;0;0;0;5;0;57296;2;0;0;0;0;0;6;0;43660;2;0;0;0;0;0;7;0;37653;0;0;0;0;8;0;36710;0;0;0;0;9;0;19789;0;0;0;0
13.10.18;21:30:00;1;206;11913;0;2;0;24195;0;0;0;0;3;0;15594;0;0;0;0;4;0;21844;0;0;0;0;5;0;57296;2;0;0;0;0;0;6;0;43660;2;0;0;0;0;0;7;0;37653;0;0;0;0;8;0;36710;0;0;0;0;9;0;19789;0;0;0;0
13.10.18;21:25:00;1;206;11896;0;2;0;24195;0;0;0;0;3;0;15594;0;0;0;0;4;0;21844;0;0;0;0;5;0;57296;2;0;0;0;0;0;6;0;43660;2;0;0;0;0;0;7;0;37653;0;0;0;0;8;0;36710;0;0;0;0;9;0;19789;0;0;0;0
13.10.18;21:20:00;1;207;11879;0;2;0;24195;0;0;0;0;3;0;15594;0;0;0;0;4;0;21844;0;0;0;0;5;0;57296;2;0;0;0;0;0;6;0;43660;2;0;0;0;0;0;7;0;37653;0;0;0;0;8;0;36710;0;0;0;0;9;0;19789;0;0;0;0
13.10.18;21:15:00;1;207;11862;0;2;0;24195;0;0;0;0;3;0;15594;0;0;0;0;4;0;21844;0;0;0;0;5;0;57296;2;0;0;0;0;0;6;0;43660;2;0;0;0;0;0;7;0;37653;0;0;0;0;8;0;36710;0;0;0;0;9;0;19789;0;0;0;0
13.10.18;21:10:00;1;207;11844;0;2;0;24195;0;0;0;0;3;0;15594;0;0;0;0;4;0;21844;0;0;0;0;5;0;57296;2;0;0;0;0;0;6;0;43660;2;0;0;0;0;0;7;0;37653;0;0;0;0;8;0;36710;0;0;0;0;9;0;19789;0;0;0;0
13.10.18;21:05:00;1;250;11827;0;2;0;24195;0;0;0;0;3;0;15594;0;0;0;0;4;0;21844;0;0;0;0;5;0;57296;2;0;0;0;0;0;6;0;43660;2;0;0;0;0;0;7;0;37653;0;0;0;0;8;0;36710;0;0;0;0;9;0;19789;0;0;0;0
13.10.18;21:00:00;1;252;11806;0;2;0;24195;0;0;0;0;3;0;15594;0;0;0;0;4;0;21844;0;0;0;0;5;0;57296;2;0;0;0;0;0;6;0;43660;2;0;0;0;0;0;7;0;37653;0;0;0;0;8;0;36710;0;0;0;0;9;0;19789;0;0;0;0
13.10.18;20:55:00;1;257;11785;0;2;0;24195;0;0;0;0;3;0;15594;0;0;0;0;4;0;21844;0;0;0;0;5;0;57296;2;0;0;0;0;0;6;0;43660;2;0;0;0;0;0;7;0;37653;0;0;0;0;8;0;36710;0;0;0;0;9;0;19789;0;0;0;0
13.10.18;20:50:00;1;270;11763;0;2;0;24195;0;0;0;0;3;0;15594;0;0;0;0;4;0;21844;0;0;0;0;5;0;57296;2;0;0;0;0;0;6;0;43660;2;0;0;0;0;0;7;0;37653;0;0;0;0;8;0;36710;0;0;0;0;9;0;19789;0;0;0;0
13.10.18;20:45:00;1;257;11740;0;2;0;24195;0;0;0;0;3;0;15594;0;0;0;0;4;0;21844;0;0;0;0;5;0;57296;2;0;0;0;0;0;6;0;43660;2;0;0;0;0;0;7;0;37653;0;0;0;0;8;0;36710;0;0;0;0;9;0;19789;0;0;0;0
13.10.18;20:40:00;1;258;11718;0;2;0;24195;0;0;0;0;3;0;15594;0;0;0;0;4;0;21844;0;0;0;0;5;0;57296;2;0;0;0;0;0;6;0;43660;2;0;0;0;0;0;7;0;37653;0;0;0;0;8;0;36710;0;0;0;0;9;0;19789;0;0;0;0
13.10.18;20:35:00;1;314;11696;0;2;0;24195;0;0;0;0;3;0;15594;0;0;0;0;4;0;21844;0;0;0;0;5;0;57296;2;0;0;0;0;0;6;0;43660;2;0;0;0;0;0;7;0;37653;0;0;0;0;8;0;36710;0;0;0;0;9;0;19789;0;0;0;0
13.10.18;20:30:00;1;331;11670;0;2;0;24195;0;0;0;0;3;0;15594;0;0;0;0;4;0;21844;0;0;0;0;5;0;57296;2;0;0;0;0;0;6;0;43660;2;0;0;0;0;0;7;0;37653;0;0;0;0;8;0;36710;0;0;0;0;9;0;19789;0;0;0;0
13.10.18;20:25:00;1;373;11641;0;2;0;24195;0;0;0;0;3;0;15594;0;0;0;0;4;0;21844;0;0;0;0;5;0;57296;2;0;0;0;0;0;6;0;43660;2;0;0;0;0;0;7;0;37653;0;0;0;0;8;0;36710;0;0;0;0;9;0;19789;0;0;0;0
13.10.18;20:20:00;1;288;11613;0;2;0;24195;0;0;0;0;3;0;15594;0;0;0;0;4;0;21844;0;0;0;0;5;0;57296;2;0;0;0;0;0;6;0;43660;2;0;0;0;0;0;7;0;37653;0;0;0;0;8;0;36710;0;0;0;0;9;0;19789;0;0;0;0
13.10.18;20:15:00;1;343;11588;0;2;0;24195;0;0;0;0;3;0;15594;0;0;0;0;4;0;21844;0;0;0;0;5;0;57296;2;0;0;0;0;0;6;0;43660;2;0;0;0;0;0;7;0;37653;0;0;0;0;8;0;36710;0;0;0;0;9;0;19789;0;0;0;0
13.10.18;20:10:00;1;320;11560;0;2;0;24195;0;0;0;0;3;0;15594;0;0;0;0;4;0;21844;0;0;0;0;5;0;57296;2;0;0;0;0;0;6;0;43660;2;0;0;0;0;0;7;0;37653;0;0;0;0;8;0;36710;0;0;0;0;9;0;19789;0;0;0;0
13.10.18;20:05:00;1;320;11533;0;2;0;24195;0;0;0;0;3;0;15594;0;0;0;0;4;0;21844;0;0;0;0;5;0;57296;2;0;0;0;0;0;6;0;43660;2;0;0;0;0;0;7;0;37653;0;0;0;0;8;0;36710;0;0;0;0;9;0;19789;0;0;0;0
13.10.18;20:00:00;1;261;11506;0;2;0;24195;0;0;0;0;3;0;15594;0;0;0;0;4;0;21844;0;0;0;0;5;0;57296;2;0;0;0;0;0;6;0;43660;2;0;0;0;0;0;7;0;37653;0;0;0;0;8;0;36710;0;0;0;0;9;0;19789;0;0;0;0
13.10.18;19:55:00;1;260;11483;0;2;0;24195;0;0;0;0;3;0;15594;0;0;0;0;4;0;21844;0;0;0;0;5;0;57296;2;0;0;0;0;0;6;0;43660;2;0;0;0;0;0;7;0;37653;0;0;0;0;8;0;36710;0;0;0;0;9;0;19789;0;0;0;0
13.10.18;19:50:00;1;289;11461;0;2;0;24195;0;0;0;0;3;0;15594;0;0;0;0;4;0;21844;0;0;0;0;5;0;57296;2;0;0;0;0;0;6;0;43660;2;0;0;0;0;0;7;0;37653;0;0;0;0;8;0;36710;0;0;0;0;9;0;19789;0;0;0;0
13.10.18;19:45:00;1;314;11437;0;2;0;24195;0;0;0;0;3;0;15594;0;0;0;0;4;0;21844;0;0;0;0;5;0;57296;2;0;0;0;0;0;6;0;43660;2;0;0;0;0;0;7;0;37653;0;0;0;0;8;0;36710;0;0;0;0;9;0;19789;0;0;0;0
13.10.18;19:40:00;1;742;11411;0;2;0;24195;0;0;0;0;3;0;15594;0;0;0;0;4;0;21844;0;0;0;0;5;0;57296;2;0;0;0;0;0;6;0;43660;2;0;0;0;0;0;7;0;37653;0;0;0;0;8;0;36710;0;0;0;0;9;0;19789;0;0;0;0
13.10.18;19:35:00;1;949;11334;0;2;0;24195;0;0;0;0;3;0;15594;0;0;0;0;4;0;21844;0;0;0;0;5;0;57296;2;0;0;0;0;0;6;0;43660;2;0;0;0;0;0;7;0;37653;0;0;0;0;8;0;36710;0;0;0;0;9;0;19789;0;0;0;0
13.10.18;19:30:00;1;642;11261;0;2;0;24195;0;0;0;0;3;0;15594;0;0;0;0;4;0;21844;0;0;0;0;5;0;57296;2;0;0;0;0;0;6;0;43660;2;0;0;0;0;0;7;0;37653;0;0;0;0;8;0;36710;0;0;0;0;9;0;19789;0;0;0;0
13.10.18;19:25:00;1;674;11207;0;2;0;24195;0;0;0;0;3;0;15594;0;0;0;0;4;0;21844;0;0;0;0;5;0;57296;2;0;0;0;0;0;6;0;43660;2;0;0;0;0;0;7;0;37653;0;0;0;0;8;0;36710;0;0;0;0;9;0;19789;0;0;0;0
13.10.18;19:20:00;1;664;11152;0;2;0;24195;0;0;0;0;3;0;15594;0;0;0;0;4;0;21844;0;0;0;0;5;0;57296;2;0;0;0;0;0;6;0;43660;2;0;0;0;0;0;7;0;37653;0;0;0;0;8;0;36710;0;0;0;0;9;0;19789;0;0;0;0
13.10.18;19:15:00;1;647;11095;0;2;0;24195;0;0;0;0;3;0;15594;0;0;0;0;4;0;21844;0;0;0;0;5;0;57296;2;0;0;0;0;0;6;0;43660;2;0;0;0;0;0;7;0;37653;0;0;0;0;8;0;36710;0;0;0;0;9;0;19789;0;0;0;0
13.10.18;19:10:00;1;628;11039;0;2;0;24195;0;0;0;0;3;0;15594;0;0;0;0;4;0;21844;0;0;0;0;5;0;57296;2;0;0;0;0;0;6;0;43660;2;0;0;0;0;0;7;0;37653;0;0;0;0;8;0;36710;0;0;0;0;9;0;19789;0;0;0;0
13.10.18;19:05:00;1;588;10969;0;2;0;24195;0;0;0;0;3;0;15594;0;0;0;0;4;0;21844;0;0;0;0;5;0;57296;2;0;0;0;0;0;6;0;43660;2;0;0;0;0;0;7;0;37653;0;0;0;0;8;0;36710;0;0;0;0;9;0;19789;0;0;0;0
13.10.18;19:00:00;1;650;10918;0;2;0;24195;0;0;0;0;3;0;15594;0;0;0;0;4;0;21844;0;0;0;0;5;0;57296;2;0;0;0;0;0;6;0;43660;2;0;0;0;0;0;7;0;37653;0;0;0;0;8;0;36710;0;0;0;0;9;0;19789;0;0;0;0
13.10.18;18:55:00;1;720;10864;0;2;0;24195;0;0;0;0;3;0;15594;0;0;0;0;4;0;21844;0;0;0;0;5;0;57296;2;0;0;0;0;0;6;0;43660;2;0;0;0;0;0;7;0;37653;0;0;0;0;8;0;36710;0;0;0;0;9;0;19789;0;0;0;0
13.10.18;18:50:00;1;763;10804;0;2;0;24195;0;0;0;0;3;0;15594;0;0;0;0;4;0;21844;0;0;0;0;5;0;57296;2;0;0;0;0;0;6;0;43660;2;0;0;0;0;0;7;0;37653;0;0;0;0;8;0;36710;0;0;0;0;9;0;19789;0;0;0;0
13.10.18;18:45:00;1;782;10740;0;2;0;24195;0;0;86;10;3;0;15594;0;0;234;26;4;0;21844;0;0;19;10;5;0;57296;2;0;0;0;0;0;6;0;43660;2;0;0;0;0;0;7;0;37653;0;0;0;0;8;0;36710;0;0;0;0;9;0;19789;0;0;0;0
13.10.18;18:40:00;1;887;10675;0;2;0;24195;6;0;301;31;3;0;15594;6;0;362;32;4;0;21844;2;0;97;31;5;0;57296;2;0;0;54;53;13;6;0;43660;0;0;1;29;42;8;7;0;37653;0;0;41;5;8;0;36710;0;0;40;5;9;0;19789;0;0;42;4
13.10.18;18:35:00;1;692;10606;0;2;0;24195;6;0;336;32;3;0;15594;6;2;393;33;4;0;21844;1;0;147;32;5;0;57296;26;0;0;358;412;39;6;0;43660;23;0;11;420;217;38;7;0;37653;6;0;297;33;8;0;36710;6;0;296;32;9;0;19789;6;0;305;28
13.10.18;18:30:00;1;873;10548;0;2;0;24195;6;0;358;33;3;1;15594;6;2;437;33;4;0;21844;1;0;186;32;5;0;57296;23;0;0;385;506;40;6;0;43660;23;2;7;295;408;38;7;0;37653;6;0;367;33;8;0;36710;6;0;367;32;9;0;19789;6;0;385;28
13.10.18;18:25:00;1;955;10456;0;2;0;24195;6;0;373;34;3;2;15594;6;5;455;34;4;0;21844;1;0;205;33;5;10;57296;1;0;0;389;616;40;6;0;43660;23;2;7;328;543;39;7;0;37653;6;2;315;27;8;0;36710;6;0;416;33;9;0;19789;6;1;430;29
13.10.18;18:20:00;1;583;10394;0;2;6;24195;6;12;379;35;3;0;15594;6;5;477;35;4;4;21844;3;4;212;34;5;46;57295;1;0;5;383;611;41;6;0;43660;8;1;8;434;556;40;7;4;37653;6;8;414;34;8;1;36710;6;3;420;34;9;0;19789;0;0;162;9
13.10.18;18:15:00;1;585;10345;0;2;122;24194;4;159;353;37;3;65;15594;6;91;420;36;4;61;21844;3;63;201;34;5;89;57291;4;7;18;370;591;42;6;52;43660;4;21;23;428;223;41;7;3;37652;6;8;348;28;8;1;36710;3;7;350;27;9;3;19789;3;8;454;30
13.10.18;18:10:00;1;568;10297;0;2;255;24184;4;296;351;38;3;154;15589;4;190;383;37;4;209;21838;5;217;218;34;5;127;57283;4;24;40;370;591;42;6;70;43655;4;39;36;428;223;41;7;29;37652;0;57;301;29;8;12;36710;6;22;437;35;9;2;19788;6;5;501;30
13.10.18;18:05:00;1;364;10251;0;2;368;24163;4;414;353;39;3;226;15576;4;267;391;37;4;327;21821;5;340;224;35;5;164;57272;4;43;53;370;591;42;6;90;43649;4;43;37;428;222;41;7;77;37650;4;110;364;36;8;51;36709;4;86;376;35;9;6;19788;6;17;475;31
13.10.18;18:00:00;1;558;10221;0;2;525;24133;4;577;352;39;3;309;15557;4;353;401;38;4;444;21794;5;462;226;35;5;213;57258;4;69;82;370;591;42;6;124;43641;4;76;57;428;223;41;7;145;37643;4;180;356;36;8;103;36704;4;116;391;36;9;4;19788;6;8;517;31
13.10.18;17:55:00;1;572;10172;0;2;658;24089;4;715;355;40;3;386;15532;4;434;401;38;4;400;21757;5;417;228;36;5;253;57240;4;88;100;370;591;43;6;194;43630;4;98;105;428;338;41;7;315;37631;4;351;355;37;8;242;36696;4;272;362;36;9;6;19787;6;12;518;32
13.10.18;17:50:00;1;613;10122;0;2;800;24034;4;863;352;41;3;480;15499;4;531;404;39;4;466;21723;5;485;224;36;5;295;57218;4;112;116;370;591;43;6;303;43614;4;116;170;433;525;41;7;630;37605;4;675;356;37;8;458;36676;4;499;420;37;9;5;19787;4;10;523;32
13.10.18;17:45:00;1;398;10070;0;2;884;23968;4;949;353;42;3;559;15459;4;612;408;39;4;695;21685;5;724;201;36;5;409;57193;4;175;177;323;554;43;6;428;43588;4;230;287;550;534;42;7;934;37553;4;995;379;38;8;576;36638;4;628;441;37;9;21;19786;3;31;502;33
13.10.18;17:40:00;1;723;10039;0;2;1010;23895;4;1080;355;43;3;645;15413;4;701;422;40;4;775;21627;5;807;202;37;5;612;57158;4;307;242;367;537;43;6;538;43552;4;263;322;560;541;42;7;1212;37476;4;1282;418;39;8;708;36591;4;763;454;38;9;60;19784;4;90;451;34
13.10.18;17:35:00;1;2413;9957;0;2;1175;23810;4;1254;356;44;3;750;15359;4;811;404;40;4;841;21563;5;876;210;37;5;814;57106;4;415;319;395;570;44;6;653;43507;4;310;354;557;543;42;7;1498;37375;4;1583;447;39;8;801;36532;4;861;423;38;9;71;19779;4;104;482;35
13.10.18;17:30:00;1;2374;9756;0;2;1327;23713;4;1410;356;45;3;826;15297;4;887;409;41;4;917;21493;5;956;213;37;5;1024;57037;4;512;426;405;628;44;6;798;43451;4;379;426;569;544;42;7;1710;37251;4;1809;464;40;8;1014;36465;4;1076;361;39;9;79;19773;4;116;488;35
13.10.18;17:25:00;1;386;9568;0;2;1487;23602;4;1578;356;46;3;898;15228;4;962;410;41;4;1007;21417;5;1049;220;37;5;1217;56950;4;605;516;404;639;44;6;934;43384;4;437;485;567;546;42;7;1892;37109;4;1995;459;40;8;1448;36382;4;1524;370;39;9;93;19767;4;126;503;36
13.10.18;17:20:00;1;372;9537;0;2;1640;23479;4;1738;361;47;3;968;15154;4;1035;416;41;4;1105;21333;5;1151;218;38;5;1427;56847;4;722;607;405;643;45;6;1096;43304;4;537;581;567;542;43;7;2075;36951;4;2190;459;40;8;1792;36261;4;1885;411;40;9;93;19759;4;123;409;37
13.10.18;17:15:00;1;442;9505;0;2;1805;23342;4;1910;368;48;3;1039;15073;4;1106;412;42;4;1209;21241;5;1259;205;38;5;1635;56727;4;840;698;406;652;45;6;1255;43212;4;636;660;569;548;43;7;2242;36779;4;2365;463;41;8;2051;36112;4;2158;431;41;9;144;19751;4;174;355;38
13.10.18;17:10:00;1;664;9468;0;2;1937;23192;4;2047;367;49;3;1106;14987;4;1178;416;42;4;1349;21141;5;1405;199;38;5;1854;56590;4;950;801;406;649;45;6;1423;43107;4;687;720;571;543;43;7;2418;36594;4;2543;453;41;8;2292;35944;4;2408;438;41;9;524;19739;4;568;354;39
13.10.18;17:05:00;1;409;9415;0;2;2052;23031;4;2172;374;50;3;1141;14895;4;1214;407;42;4;1259;21029;5;1311;200;38;5;2067;56434;4;1068;891;406;648;45;6;1577;42987;4;771;796;571;545;43;7;2566;36391;4;2710;455;42;8;2496;35751;4;2624;451;42;9;930;19696;4;985;357;40
13.10.18;17:00:00;1;372;9384;0;2;2201;22860;4;2328;370;50;3;1204;14800;4;1277;409;43;4;1170;20924;5;1219;202;38;5;2277;56261;4;1189;989;407;649;46;6;1746;42854;4;896;905;568;552;43;7;2734;36178;4;2875;453;42;8;1770;35544;4;1859;305;28;9;1109;19619;4;1174;385;42
13.10.18;16:55:00;1;384;9353;0;2;2290;22677;4;2425;379;51;3;1256;14699;4;1330;404;43;4;1163;20826;5;1211;200;38;5;2497;56070;4;1299;1087;406;655;46;6;1914;42708;4;971;987;570;548;43;7;2878;35949;4;3029;459;43;8;2825;35322;4;2974;450;42;9;1281;19526;4;1358;421;42
13.10.18;16:50:00;1;795;9321;0;2;2444;22486;4;2581;371;52;3;1311;14595;4;1387;408;44;4;1194;20729;5;1244;200;39;5;2706;55860;4;1428;1185;401;644;46;6;2082;42547;4;1047;1068;569;550;44;7;3024;35710;4;3186;456;43;8;2969;35087;4;3120;458;43;9;1432;19421;4;1520;441;43
13.10.18;16:45:00;1;860;9218;0;2;2566;22283;4;2708;376;52;3;1360;14486;4;1441;412;44;4;1207;20630;5;1257;199;39;5;2940;55633;4;1562;1287;409;651;47;6;2256;42372;4;1133;1146;564;546;44;7;3176;35458;4;3340;453;43;8;3119;34840;4;3273;452;43;9;1275;19301;4;1351;376;35
13.10.18;16:40:00;1;444;9164;0;2;2639;22069;4;2788;377;53;3;1411;14372;4;1490;404;44;4;961;20529;5;1001;202;39;5;3168;55386;4;1686;1390;404;651;47;6;2420;42182;4;1221;1240;567;549;44;7;3303;35194;4;3475;459;44;8;3242;34580;4;3407;451;43;9;1717;19170;4;1817;483;45
13.10.18;16:35:00;1;440;9127;0;2;2764;21849;4;2920;374;54;3;1462;14255;4;1540;391;44;4;1038;20449;5;1082;200;40;5;3372;55121;4;1799;1485;407;650;47;6;2583;41980;4;1300;1304;566;546;44;7;3442;34919;4;3615;451;44;8;3372;34310;4;3541;451;44;9;1830;19028;4;1937;497;45
13.10.18;16:30:00;1;513;9089;0;2;2877;21619;4;3040;375;54;3;1564;14133;4;1647;400;45;4;1118;20363;5;1164;200;40;5;3598;54838;4;1926;1584;405;644;47;6;2752;41764;4;1401;1402;566;547;44;7;3552;34632;4;3738;448;44;8;3494;34029;4;3673;444;44;9;1910;18877;4;2023;491;46
13.10.18;16:25:00;1;539;9045;0;2;2975;21380;4;3142;376;54;3;1608;14003;4;1694;396;45;4;1162;20269;5;1210;200;41;5;3804;54537;4;2037;1677;407;657;48;6;2910;41534;4;1466;1472;564;547;44;7;3660;34339;4;3848;448;45;8;2870;33741;4;3022;359;35;9;1972;18716;4;2086;490;46
13.10.18;16:20:00;1;569;8998;0;2;3093;21133;4;3266;376;55;3;1657;13869;4;1744;398;45;4;1183;20173;5;1232;204;41;5;4016;54220;4;2154;1775;405;647;48;6;3071;41290;4;1561;1560;565;547;45;7;3141;34031;4;3307;370;37;8;1854;33384;0;1948;222;22;9;1351;18552;4;1429;329;31
13.10.18;16:15:00;1;1509;8952;0;2;3157;20874;4;3334;373;55;3;1687;13731;4;1776;399;46;4;1163;20074;5;1211;199;42;5;4218;53882;4;2271;1864;403;649;48;6;3232;41033;4;1649;1662;563;548;45;7;2314;33717;4;2435;269;27;8;3820;33135;4;4010;442;45;9;1257;18383;4;1327;296;28
13.10.18;16:10:00;1;2578;8814;0;2;3218;20611;4;3401;374;56;3;1720;13590;4;1809;394;46;4;1244;19977;5;1296;205;42;5;4411;53531;4;2390;1947;402;646;48;6;3372;40763;4;1731;1724;560;544;45;7;1996;33339;0;2104;223;23;8;1959;32818;4;2054;223;22;9;722;18120;0;764;162;15
13.10.18;16:05:00;1;2809;8597;0;2;3251;20343;4;3443;372;56;3;1761;13447;4;1857;401;46;4;1339;19873;5;1394;209;43;5;4577;53162;4;2474;2026;401;644;48;6;3498;40480;4;1795;1787;557;541;45;7;3271;33065;4;3442;359;36;8;3224;32411;0;3396;357;36;9;1325;18031;4;1401;290;28
13.10.18;16:00:00;1;2591;8364;0;2;3324;20072;4;3514;374;56;3;1821;13300;4;1915;398;46;4;1463;19761;5;1524;211;43;5;4773;52780;4;2578;2113;401;644;49;6;3647;40187;4;1857;1847;558;542;45;7;2086;32725;4;2198;224;23;8;4126;32156;4;4341;440;46;9;380;17692;0;402;79;8
13.10.18;15:55:00;1;2562;8148;0;2;3377;19796;4;3572;376;56;3;1850;13148;4;1945;399;47;4;1660;19640;5;1729;211;44;5;4953;52381;4;2685;2199;401;641;49;6;3794;39882;4;1928;1926;558;540;45;7;851;32280;0;896;89;9;8;4198;31813;4;4413;442;46;9;2311;17663;4;2448;489;48
13.10.18;15:50:00;1;2563;7935;0;2;3417;19515;4;3605;368;56;3;1881;12994;4;1979;404;47;4;1771;19501;5;1844;201;44;5;5107;51967;4;2777;2270;395;635;49;6;3913;39566;4;1990;1975;558;542;45;7;1741;31858;0;1832;176;18;8;4272;31458;4;4495;440;46;9;1880;17465;4;1988;389;39
13.10.18;15:45:00;1;2562;7721;0;2;3455;19230;4;3647;368;56;3;1942;12837;4;2040;402;47;4;1937;19354;5;2017;217;45;5;5263;51540;4;2869;2336;399;633;49;6;4024;39239;4;2090;2065;553;540;45;7;2638;31671;4;2773;266;28;8;863;31111;4;905;86;9;9;1919;17273;4;2034;390;39
13.10.18;15:40:00;1;1515;7507;0;2;3512;18941;4;3711;373;56;3;1968;12676;4;2072;407;47;4;2116;19193;5;2204;213;46;5;5442;51100;4;2970;2420;396;631;49;6;4164;38902;4;2140;2111;556;542;45;7;2256;31304;4;2373;222;23;8;2974;30621;0;3129;290;31;9;1227;17073;4;1298;242;24
13.10.18;15:35:00;1;625;7406;0;2;3554;18648;4;3753;366;56;3;1989;12512;4;2092;399;48;4;2228;19017;5;2320;214;46;5;5602;50645;4;3053;2493;394;632;49;6;4282;38554;4;2195;2175;555;541;45;7;3668;30925;4;3854;351;37;8;3625;30380;4;3810;349;37;9;1489;16871;4;1576;295;29
13.10.18;15:30:00;1;1637;7349;0;2;3570;18352;4;3765;369;56;3;2001;12346;4;2105;413;48;4;2417;18832;5;2517;219;47;5;5754;50176;4;3134;2564;396;634;49;6;4391;38197;4;2255;2238;552;539;46;7;1542;30395;0;1619;142;15;8;4561;30004;4;4799;442;47;9;422;16617;0;446;81;8
13.10.18;15:25:00;1;2482;7199;0;2;3592;18056;4;3794;363;56;3;2059;12179;4;2164;410;48;4;2508;18631;5;2613;217;47;5;5871;49696;4;3212;2617;391;631;49;6;4478;37831;4;2317;2279;547;536;46;7;4649;30158;4;4898;442;47;8;912;29622;4;958;84;9;9;1021;16329;0;1081;193;20
13.10.18;15:20:00;1;837;6993;0;2;3624;17756;4;3824;363;56;3;2117;12007;4;2231;429;49;4;2637;18422;5;2746;212;47;5;6020;49206;4;3294;2692;390;630;49;6;4593;37457;4;2364;2313;548;534;46;7;4734;29773;4;4980;434;48;8;3736;29246;4;3929;346;37;9;2572;16241;4;2719;484;50
13.10.18;15:15:00;1;425;6927;0;2;3637;17453;4;3833;355;56;3;2238;11832;4;2358;445;49;4;2717;18202;5;2830;216;48;5;6139;48703;4;3357;2746;391;626;49;6;4677;37073;4;2405;2370;545;532;46;7;4790;29379;4;5043;437;48;8;4712;28861;4;4961;434;47;9;0;15666;0;0;0;0
13.10.18;15:10:00;1;381;6891;0;2;3664;17151;4;3864;359;56;3;2346;11645;4;2471;457;49;4;2874;17976;5;2994;212;48;5;6277;48191;4;3428;2809;389;632;49;6;4778;36683;4;2442;2413;546;528;46;7;4865;28981;4;5114;432;48;8;1592;28466;4;1673;143;15;9;880;15666;0;932;160;16
13.10.18;15:05:00;1;705;6859;0;2;3701;16845;4;3904;359;56;3;2398;11450;4;2530;466;49;4;3023;17736;5;3149;214;48;5;6407;47667;4;3500;2869;390;629;49;6;4888;36284;4;2517;2483;545;525;46;7;4888;28568;4;5139;433;48;8;3840;28061;4;4040;341;38;9;0;15379;0;0;0;0
13.10.18;15:00:00;1;393;6809;0;2;3716;16536;4;3914;360;56;3;2406;11250;4;2537;464;49;4;3154;17485;5;3285;214;49;5;6533;47130;4;3579;2922;392;633;49;6;4972;35875;4;2573;2508;546;531;46;7;4905;28167;4;5167;427;48;8;1930;27394;0;2028;169;19;9;2681;15379;4;2833;476;50
13.10.18;14:55:00;1;431;6775;0;2;3709;16227;4;3911;355;57;3;2408;11049;4;2540;464;49;4;3246;17223;5;3381;214;49;5;6600;46588;4;3625;2950;389;630;49;6;5028;35461;4;2586;2553;543;522;46;7;2954;27756;4;3112;254;28;8;4849;27268;4;5093;421;48;9;2690;15157;4;2845;476;51
13.10.18;14:50:00;1;431;6739;0;2;3766;15917;4;3969;361;57;3;2440;10849;4;2570;463;49;4;3381;16952;5;3522;218;48;5;6745;46038;4;3702;3019;392;628;49;6;5139;35041;4;2634;2600;544;530;46;7;4972;27340;4;5230;428;48;8;4877;26857;4;5122;423;48;9;2166;14851;0;2287;378;40